QPF
0.00 0.00 0.00 0.00 0.00 0.00 0.00 0.00 0.00 0.00 0.00 0.01 0.01 0.01 0.01 0.01 0.01 0.01 0.01 0.00 0.01 0.01 0.01 0.02 0.01 0.01 0.02 0.03 0.03 0.03 0.02 0.02 0.03 0.04 0.05 0.05 0.05 0.06 0.08 0.07 0.07 0.07 0.08 0.08
0.00 0.00 0.00 0.00 0.00 0.00 0.00 0.00 0.00 0.00 0.00 0.00 0.01 0.01 0.01 0.01 0.01 0.01 0.01 0.01 0.01 0.01 0.01 0.01 0.01 0.00 0.00 0.01 0.01 0.01 0.01 0.01 0.01 0.02 0.03 0.04 0.03 0.05 0.06 0.05 0.05 0.06 0.05 0.07
0.00 0.00 0.00 0.00 0.00 0.00 0.00 0.00 0.00 0.00 0.00 0.00 0.00 0.01 0.01 0.01 0.01 0.01 0.01 0.00 0.00 0.00 0.00 0.00 0.00 0.00 0.00 0.00 0.00 0.00 0.01 0.01 0.01 0.01 0.03 0.03 0.02 0.03 0.03 0.03 0.03 0.04 0.04 0.04
0.00 0.00 0.00 0.00 0.00 0.00 0.00 0.00 0.00 0.00 0.00 0.00 0.00 0.01 0.01 0.01 0.01 0.01 0.01 0.00 0.00 0.00 0.00 0.00 0.00 0.00 0.00 0.00 0.00 0.00 0.00 0.01 0.02 0.03 0.05 0.04 0.02 0.01 0.01 0.01 0.01 0.01 0.01 0.02
0.00 0.00 0.00 0.00 0.00 0.00 0.00 0.00 0.00 0.00 0.00 0.00 0.00 0.01 0.01 0.01 0.01 0.01 0.01 0.00 0.00 0.00 0.00 0.00 0.00 0.00 0.01 0.00 0.00 0.00 0.01 0.01 0.02 0.03 0.03 0.03 0.02 0.01 0.01 0.00 0.01 0.01 0.01 0.01
0.00 0.00 0.00 0.00 0.00 0.00 0.00 0.00 0.00 0.00 0.00 0.00 0.00 0.00 0.00 0.00 0.00 0.01 0.01 0.00 0.00 0.00 0.00 0.00 0.00 0.00 0.00 0.00 0.00 0.00 0.01 0.01 0.02 0.02 0.02 0.01 0.01 0.01 0.01 0.00 0.00 0.00 0.01 0.01
0.00 0.00 0.00 0.00 0.00 0.00 0.00 0.00 0.00 0.00 0.00 0.00 0.00 0.00 0.00 0.00 0.00 0.00 0.00 0.01 0.00 0.00 0.00 0.00 0.00 0.00 0.00 0.00 0.00 0.00 0.01 0.01 0.01 0.01 0.01 0.01 0.01 0.02 0.01 0.00 0.00 0.00 0.00 0.01
0.00 0.00 0.00 0.00 0.00 0.00 0.00 0.00 0.00 0.00 0.00 0.00 0.00 0.00 0.00 0.00 0.00 0.00 0.00 0.00 0.00 0.00 0.00 0.00 0.00 0.00 0.00 0.00 0.00 0.00 0.00 0.00 0.00 0.00 0.00 0.00 0.01 0.02 0.01 0.00 0.00 0.00 0.01 0.01
0.00 0.00 0.00 0.00 0.00 0.00 0.00 0.00 0.00 0.00 0.00 0.00 0.00 0.00 0.00 0.00 0.00 0.00 0.00 0.00 0.00 0.00 0.00 0.00 0.00 0.00 0.00 0.00 0.00 0.00 0.00 0.00 0.00 0.00 0.00 0.01 0.02 0.02 0.01 0.00 0.00 0.01 0.01 0.00
0.00 0.00 0.00 0.00 0.00 0.00 0.00 0.00 0.00 0.00 0.00 0.00 0.00 0.00 0.00 0.00 0.00 0.00 0.00 0.00 0.00 0.00 0.00 0.00 0.00 0.00 0.00 0.00 0.00 0.00 0.00 0.00 0.00 0.00 0.00 0.00 0.00 0.00 0.00 0.00 0.00 0.00 0.00 0.00
0.00 0.00 0.00 0.00 0.00 0.00 0.00 0.00 0.00 0.00 0.00 0.00 0.00 0.00 0.00 0.00 0.00 0.00 0.00 0.00 0.00 0.00 0.00 0.00 0.00 0.00 0.00 0.00 0.00 0.00 0.00 0.00 0.00 0.00 0.00 0.00 0.00 0.00 0.00 0.00 0.00 0.00 0.00 0.00
0.00 0.00 0.00 0.00 0.00 0.00 0.00 0.00 0.00 0.00 0.00 0.00 0.00 0.00 0.00 0.00 0.00 0.00 0.00 0.00 0.00 0.00 0.00 0.00 0.00 0.00 0.00 0.00 0.00 0.00 0.00 0.00 0.00 0.00 0.00 0.00 0.00 0.00 0.00 0.00 0.00 0.00 0.00 0.00
0.00 0.00 0.00 0.00 0.00 0.00 0.00 0.00 0.00 0.00 0.00 0.00 0.00 0.00 0.00 0.00 0.00 0.00 0.00 0.00 0.00 0.00 0.00 0.00 0.00 0.00 0.00 0.00 0.00 0.00 0.00 0.00 0.00 0.00 0.00 0.00 0.00 0.00 0.00 0.00 0.00 0.00 0.00 0.00
0.00 0.00 0.00 0.00 0.00 0.00 0.00 0.00 0.00 0.00 0.00 0.00 0.00 0.00 0.00 0.00 0.00 0.00 0.00 0.00 0.00 0.00 0.00 0.00 0.00 0.00 0.00 0.00 0.00 0.00 0.00 0.00 0.00 0.00 0.00 0.00 0.00 0.00 0.00 0.00 0.00 0.00 0.00 0.00
0.00 0.00 0.00 0.00 0.00 0.00 0.00 0.00 0.00 0.00 0.00 0.00 0.00 0.00 0.00 0.00 0.00 0.00 0.00 0.00 0.00 0.00 0.00 0.00 0.00 0.00 0.00 0.00 0.00 0.00 0.00 0.00 0.00 0.00 0.00 0.00 0.00 0.00 0.00 0.00 0.00 0.00 0.00 0.00
0.00 0.00 0.00 0.00 0.00 0.00 0.00 0.00 0.00 0.00 0.00 0.00 0.00 0.00 0.00 0.00 0.00 0.00 0.00 0.00 0.00 0.00 0.00 0.00 0.00 0.00 0.00 0.00 0.00 0.00 0.00 0.00 0.00 0.00 0.00 0.00 0.00 0.00 0.00 0.00 0.00 0.00 0.00 0.00
0.00 0.00 0.00 0.00 0.00 0.00 0.00 0.00 0.00 0.00 0.00 0.00 0.00 0.00 0.00 0.00 0.00 0.00 0.00 0.00 0.00 0.00 0.00 0.00 0.00 0.00 0.00 0.00 0.00 0.00 0.00 0.00 0.00 0.00 0.00 0.00 0.00 0.00 0.00 0.00 0.00 0.00 0.00 0.00
0.00 0.00 0.00 0.00 0.00 0.00 0.00 0.00 0.00 0.00 0.00 0.00 0.00 0.00 0.00 0.00 0.00 0.00 0.00 0.00 0.00 0.00 0.00 0.00 0.00 0.00 0.00 0.00 0.00 0.00 0.00 0.00 0.00 0.00 0.00 0.00 0.00 0.00 0.00 0.00 0.00 0.00 0.00 0.00
0.00 0.00 0.00 0.00 0.00 0.00 0.00 0.00 0.00 0.00 0.00 0.00 0.00 0.00 0.00 0.00 0.00 0.00 0.00 0.00 0.00 0.00 0.00 0.00 0.00 0.00 0.00 0.00 0.00 0.00 0.00 0.00 0.00 0.00 0.00 0.00 0.00 0.00 0.00 0.00 0.00 0.00 0.00 0.00
0.00 0.00 0.00 0.00 0.00 0.00 0.00 0.00 0.00 0.00 0.00 0.00 0.00 0.00 0.00 0.00 0.00 0.00 0.00 0.00 0.00 0.00 0.00 0.00 0.00 0.00 0.00 0.00 0.00 0.00 0.00 0.00 0.00 0.00 0.00 0.00 0.00 0.00 0.00 0.00 0.00 0.00 0.00 0.00
0.00 0.00 0.00 0.00 0.00 0.00 0.00 0.00 0.00 0.00 0.00 0.00 0.00 0.00 0.00 0.00 0.00 0.00 0.00 0.00 0.00 0.00 0.00 0.00 0.00 0.00 0.00 0.00 0.00 0.00 0.00 0.00 0.00 0.00 0.00 0.00 0.00 0.00 0.00 0.00 0.00 0.00 0.00 0.00
0.00 0.00 0.00 0.00 0.00 0.00 0.00 0.00 0.00 0.00 0.00 0.00 0.00 0.00 0.00 0.00 0.00 0.00 0.00 0.00 0.00 0.00 0.00 0.00 0.00 0.00 0.00 0.00 0.00 0.00 0.00 0.00 0.00 0.00 0.00 0.00 0.00 0.00 0.00 0.00 0.00 0.00 0.00 0.00
0.00 0.00 0.00 0.00 0.00 0.00 0.00 0.00 0.00 0.00 0.00 0.00 0.00 0.00 0.00 0.00 0.00 0.00 0.00 0.00 0.00 0.00 0.00 0.00 0.00 0.00 0.00 0.00 0.00 0.00 0.00 0.00 0.00 0.00 0.00 0.00 0.00 0.00 0.00 0.00 0.00 0.00 0.00 0.00
0.00 0.00 0.00 0.00 0.00 0.00 0.00 0.00 0.00 0.00 0.00 0.00 0.00 0.00 0.00 0.00 0.00 0.00 0.00 0.00 0.00 0.00 0.00 0.00 0.00 0.00 0.00 0.00 0.00 0.00 0.00 0.00 0.00 0.00 0.00 0.00 0.00 0.00 0.00 0.00 0.00 0.00 0.00 0.00
0.00 0.00 0.00 0.00 0.00 0.00 0.00 0.00 0.00 0.00 0.00 0.00 0.00 0.00 0.00 0.00 0.00 0.00 0.00 0.00 0.00 0.00 0.00 0.00 0.00 0.00 0.00 0.00 0.00 0.00 0.00 0.00 0.00 0.00 0.00 0.00 0.00 0.00 0.00 0.00 0.00 0.00 0.00 0.00
0.00 0.00 0.00 0.00 0.00 0.00 0.00 0.00 0.00 0.00 0.00 0.00 0.00 0.00 0.00 0.00 0.00 0.00 0.00 0.00 0.00 0.00 0.00 0.00 0.00 0.00 0.00 0.00 0.00 0.00 0.00 0.00 0.00 0.00 0.00 0.00 0.00 0.00 0.00 0.00 0.00 0.00 0.00 0.00
0.00 0.00 0.00 0.00 0.00 0.00 0.00 0.00 0.00 0.00 0.00 0.00 0.00 0.00 0.00 0.00 0.00 0.00 0.00 0.00 0.00 0.00 0.00 0.00 0.00 0.00 0.00 0.00 0.00 0.00 0.00 0.00 0.00 0.00 0.00 0.00 0.00 0.00 0.00 0.00 0.00 0.00 0.00 0.00
MSLP
1023.58 1023.99 1024.38 1024.73 1025.01 1025.21 1025.31 1025.31 1025.23 1025.06 1024.84 1024.59 1024.32 1024.04 1023.75 1023.45 1023.14 1022.81 1022.46 1022.08 1021.68 1021.29 1020.91 1020.55 1020.22 1019.91 1019.62 1019.33 1019.02 1018.66 1018.25 1017.77 1017.23 1016.66 1016.06 1015.47 1014.92 1014.42 1014.00 1013.65 1013.38 1013.18 1013.03 1012.91
1023.79 1024.08 1024.32 1024.48 1024.58 1024.61 1024.57 1024.48 1024.35 1024.21 1024.07 1023.93 1023.79 1023.65 1023.49 1023.30 1023.07 1022.78 1022.44 1022.06 1021.67 1021.27 1020.90 1020.56 1020.27 1020.02 1019.80 1019.57 1019.33 1019.03 1018.67 1018.23 1017.74 1017.19 1016.63 1016.07 1015.54 1015.07 1014.67 1014.32 1014.05 1013.82 1013.62 1013.45
1024.04 1024.18 1024.24 1024.23 1024.14 1024.01 1023.86 1023.70 1023.57 1023.47 1023.41 1023.39 1023.38 1023.37 1023.32 1023.21 1023.03 1022.77 1022.43 1022.04 1021.62 1021.21 1020.83 1020.51 1020.25 1020.05 1019.88 1019.72 1019.54 1019.31 1019.02 1018.64 1018.21 1017.71 1017.20 1016.69 1016.21 1015.77 1015.39 1015.06 1014.78 1014.53 1014.29 1014.07
1024.29 1024.28 1024.16 1023.97 1023.73 1023.47 1023.23 1023.04 1022.91 1022.87 1022.89 1022.97 1023.08 1023.17 1023.21 1023.16 1023.02 1022.76 1022.41 1022.00 1021.55 1021.12 1020.74 1020.42 1020.18 1020.02 1019.90 1019.80 1019.69 1019.53 1019.31 1019.01 1018.64 1018.22 1017.78 1017.33 1016.90 1016.51 1016.15 1015.84 1015.55 1015.28 1015.01 1014.73
1024.48 1024.30 1024.03 1023.70 1023.34 1022.99 1022.70 1022.49 1022.39 1022.39 1022.49 1022.66 1022.85 1023.02 1023.12 1023.12 1022.99 1022.74 1022.38 1021.95 1021.48 1021.04 1020.64 1020.33 1020.11 1019.98 1019.91 1019.86 1019.81 1019.72 1019.57 1019.35 1019.06 1018.72 1018.34 1017.96 1017.59 1017.25 1016.93 1016.63 1016.34 1016.05 1015.74 1015.42
1024.49 1024.18 1023.79 1023.36 1022.93 1022.53 1022.22 1022.03 1021.95 1022.01 1022.17 1022.40 1022.66 1022.88 1023.02 1023.05 1022.94 1022.69 1022.33 1021.90 1021.43 1020.98 1020.59 1020.29 1020.09 1019.98 1019.94 1019.94 1019.94 1019.91 1019.82 1019.67 1019.46 1019.20 1018.90 1018.59 1018.28 1017.98 1017.69 1017.40 1017.11 1016.80 1016.46 1016.09
1024.23 1023.84 1023.38 1022.90 1022.45 1022.06 1021.77 1021.60 1021.58 1021.68 1021.89 1022.16 1022.46 1022.71 1022.88 1022.93 1022.84 1022.61 1022.27 1021.85 1021.41 1020.98 1020.61 1020.33 1020.14 1020.05 1020.03 1020.06 1020.10 1020.11 1020.09 1020.00 1019.86 1019.67 1019.44 1019.20 1018.94 1018.68 1018.41 1018.13 1017.83 1017.50 1017.13 1016.73
1023.65 1023.22 1022.76 1022.30 1021.87 1021.53 1021.30 1021.19 1021.22 1021.37 1021.62 1021.92 1022.23 1022.51 1022.69 1022.76 1022.70 1022.51 1022.21 1021.83 1021.42 1021.03 1020.69 1020.44 1020.27 1020.19 1020.19 1020.23 1020.30 1020.34 1020.36 1020.33 1020.25 1020.13 1019.96 1019.77 1019.56 1019.33 1019.08 1018.81 1018.50 1018.15 1017.75 1017.33
1022.77 1022.36 1021.94 1021.55 1021.21 1020.95 1020.81 1020.78 1020.87 1021.07 1021.34 1021.67 1021.99 1022.27 1022.47 1022.57 1022.54 1022.39 1022.15 1021.83 1021.48 1021.14 1020.84 1020.61 1020.46 1020.39 1020.39 1020.44 1020.51 1020.58 1020.62 1020.64 1020.61 1020.54 1020.44 1020.30 1020.13 1019.93 1019.70 1019.42 1019.11 1018.74 1018.34 1017.90
1021.67 1021.31 1020.99 1020.70 1020.48 1020.35 1020.31 1020.38 1020.54 1020.78 1021.09 1021.42 1021.75 1022.03 1022.25 1022.37 1022.38 1022.29 1022.10 1021.85 1021.56 1021.28 1021.02 1020.82 1020.68 1020.60 1020.59 1020.63 1020.70 1020.78 1020.85 1020.90 1020.92 1020.90 1020.85 1020.77 1020.64 1020.47 1020.25 1019.98 1019.66 1019.30 1018.89 1018.46
1020.45 1020.19 1019.99 1019.84 1019.77 1019.77 1019.86 1020.02 1020.26 1020.54 1020.87 1021.21 1021.54 1021.82 1022.05 1022.19 1022.24 1022.19 1022.07 1021.88 1021.66 1021.42 1021.20 1021.01 1020.87 1020.79 1020.76 1020.78 1020.84 1020.92 1021.00 1021.08 1021.15 1021.19 1021.19 1021.15 1021.07 1020.93 1020.74 1020.49 1020.18 1019.83 1019.43 1019.02
1019.27 1019.11 1019.04 1019.04 1019.12 1019.27 1019.48 1019.74 1020.04 1020.37 1020.72 1021.06 1021.38 1021.66 1021.89 1022.04 1022.12 1022.12 1022.05 1021.92 1021.74 1021.55 1021.35 1021.16 1021.02 1020.91 1020.86 1020.86 1020.90 1020.97 1021.07 1021.18 1021.28 1021.37 1021.43 1021.45 1021.42 1021.33 1021.17 1020.95 1020.67 1020.34 1019.97 1019.59
1018.20 1018.16 1018.22 1018.37 1018.59 1018.87 1019.20 1019.55 1019.91 1020.27 1020.63 1020.96 1021.27 1021.55 1021.77 1021.93 1022.03 1022.07 1022.03 1021.94 1021.80 1021.62 1021.43 1021.25 1021.09 1020.96 1020.87 1020.84 1020.86 1020.93 1021.04 1021.18 1021.32 1021.46 1021.58 1021.66 1021.68 1021.64 1021.53 1021.35 1021.10 1020.81 1020.49 1020.16
1017.30 1017.36 1017.54 1017.82 1018.17 1018.57 1018.99 1019.41 1019.83 1020.21 1020.58 1020.91 1021.20 1021.46 1021.67 1021.84 1021.95 1022.00 1021.99 1021.93 1021.81 1021.64 1021.46 1021.27 1021.08 1020.93 1020.82 1020.76 1020.76 1020.83 1020.94 1021.10 1021.28 1021.46 1021.63 1021.76 1021.84 1021.85 1021.79 1021.66 1021.47 1021.23 1020.96 1020.68
1016.52 1016.68 1016.97 1017.36 1017.82 1018.32 1018.82 1019.30 1019.75 1020.15 1020.52 1020.84 1021.12 1021.36 1021.57 1021.73 1021.84 1021.91 1021.91 1021.86 1021.76 1021.61 1021.42 1021.22 1021.03 1020.85 1020.71 1020.63 1020.62 1020.68 1020.79 1020.96 1021.17 1021.39 1021.59 1021.77 1021.90 1021.96 1021.95 1021.87 1021.73 1021.54 1021.33 1021.12
1015.83 1016.07 1016.45 1016.94 1017.48 1018.05 1018.61 1019.13 1019.61 1020.03 1020.39 1020.71 1020.98 1021.21 1021.41 1021.56 1021.68 1021.75 1021.78 1021.74 1021.65 1021.51 1021.34 1021.14 1020.93 1020.75 1020.60 1020.50 1020.47 1020.52 1020.63 1020.80 1021.01 1021.24 1021.47 1021.68 1021.84 1021.94 1021.97 1021.94 1021.85 1021.72 1021.57 1021.41
1015.14 1015.46 1015.92 1016.47 1017.09 1017.71 1018.31 1018.87 1019.36 1019.79 1020.16 1020.47 1020.73 1020.96 1021.15 1021.31 1021.43 1021.52 1021.56 1021.55 1021.48 1021.36 1021.20 1021.02 1020.82 1020.64 1020.49 1020.39 1020.35 1020.38 1020.47 1020.63 1020.83 1021.05 1021.28 1021.49 1021.66 1021.78 1021.84 1021.85 1021.80 1021.72 1021.62 1021.52
1014.43 1014.82 1015.34 1015.95 1016.60 1017.25 1017.88 1018.45 1018.96 1019.40 1019.77 1020.08 1020.34 1020.57 1020.77 1020.94 1021.08 1021.19 1021.25 1021.27 1021.24 1021.15 1021.03 1020.87 1020.71 1020.54 1020.40 1020.29 1020.24 1020.25 1020.33 1020.45 1020.62 1020.81 1021.01 1021.20 1021.36 1021.48 1021.55 1021.58 1021.57 1021.53 1021.48 1021.43
1013.73 1014.16 1014.72 1015.35 1016.02 1016.69 1017.32 1017.90 1018.41 1018.85 1019.22 1019.54 1019.81 1020.05 1020.26 1020.45 1020.62 1020.75 1020.85 1020.91 1020.92 1020.88 1020.81 1020.70 1020.56 1020.43 1020.31 1020.21 1020.15 1020.14 1020.18 1020.27 1020.39 1020.53 1020.68 1020.82 1020.95 1021.05 1021.11 1021.15 1021.16 1021.15 1021.14 1021.14
1013.11 1013.57 1014.13 1014.76 1015.43 1016.08 1016.70 1017.26 1017.76 1018.19 1018.56 1018.89 1019.17 1019.42 1019.65 1019.86 1020.05 1020.22 1020.36 1020.46 1020.52 1020.54 1020.52 1020.46 1020.38 1020.28 1020.19 1020.10 1020.04 1020.01 1020.02 1020.05 1020.11 1020.19 1020.28 1020.36 1020.44 1020.50 1020.55 1020.58 1020.59 1020.61 1020.63 1020.66
1012.69 1013.14 1013.68 1014.27 1014.89 1015.50 1016.07 1016.60 1017.08 1017.49 1017.86 1018.18 1018.46 1018.72 1018.97 1019.20 1019.42 1019.62 1019.79 1019.94 1020.05 1020.12 1020.15 1020.15 1020.12 1020.07 1020.00 1019.94 1019.88 1019.83 1019.81 1019.79 1019.80 1019.81 1019.83 1019.85 1019.87 1019.88 1019.90 1019.91 1019.93 1019.96 1020.00 1020.06
1012.56 1012.96 1013.44 1013.96 1014.50 1015.04 1015.55 1016.02 1016.45 1016.83 1017.17 1017.47 1017.76 1018.02 1018.27 1018.51 1018.75 1018.97 1019.17 1019.35 1019.49 1019.61 1019.69 1019.74 1019.76 1019.75 1019.72 1019.68 1019.63 1019.58 1019.53 1019.48 1019.43 1019.39 1019.35 1019.30 1019.27 1019.23 1019.21 1019.20 1019.21 1019.23 1019.29 1019.38
1012.78 1013.10 1013.48 1013.90 1014.33 1014.77 1015.19 1015.58 1015.94 1016.27 1016.57 1016.85 1017.12 1017.37 1017.61 1017.85 1018.08 1018.31 1018.52 1018.71 1018.88 1019.03 1019.14 1019.23 1019.29 1019.32 1019.33 1019.32 1019.29 1019.24 1019.18 1019.11 1019.03 1018.94 1018.85 1018.76 1018.67 1018.59 1018.53 1018.49 1018.48 1018.50 1018.56 1018.65
1013.31 1013.52 1013.79 1014.08 1014.39 1014.71 1015.02 1015.31 1015.60 1015.86 1016.11 1016.35 1016.59 1016.81 1017.03 1017.25 1017.46 1017.67 1017.87 1018.06 1018.23 1018.38 1018.51 1018.63 1018.71 1018.78 1018.82 1018.84 1018.84 1018.81 1018.76 1018.68 1018.59 1018.48 1018.36 1018.23 1018.11 1017.99 1017.90 1017.83 1017.79 1017.79 1017.83 1017.92
1014.06 1014.16 1014.29 1014.45 1014.63 1014.83 1015.03 1015.23 1015.43 1015.62 1015.81 1016.00 1016.19 1016.37 1016.55 1016.73 1016.91 1017.08 1017.25 1017.41 1017.56 1017.70 1017.83 1017.95 1018.06 1018.15 1018.22 1018.27 1018.30 1018.30 1018.27 1018.21 1018.12 1018.01 1017.88 1017.74 1017.59 1017.45 1017.32 1017.22 1017.15 1017.12 1017.14 1017.20
1014.87 1014.86 1014.88 1014.92 1014.99 1015.07 1015.16 1015.27 1015.39 1015.52 1015.65 1015.79 1015.92 1016.06 1016.19 1016.31 1016.44 1016.56 1016.68 1016.79 1016.90 1017.02 1017.13 1017.24 1017.35 1017.45 1017.54 1017.62 1017.68 1017.72 1017.72 1017.70 1017.63 1017.54 1017.42 1017.27 1017.11 1016.95 1016.80 1016.67 1016.57 1016.50 1016.48 1016.51
1015.57 1015.48 1015.41 1015.36 1015.33 1015.33 1015.35 1015.39 1015.44 1015.51 1015.59 1015.67 1015.76 1015.84 1015.91 1015.98 1016.05 1016.11 1016.16 1016.22 1016.28 1016.35 1016.42 1016.51 1016.61 1016.71 1016.82 1016.93 1017.02 1017.09 1017.13 1017.14 1017.11 1017.04 1016.94 1016.80 1016.65 1016.48 1016.31 1016.15 1016.02 1015.92 1015.86 1015.85
Thickness
5686 5687 5681 5676 5670 5661 5651 5640 5628 5630 5627 5630 5629 5626 5624 5623 5621 5621 5620 5620 5619 5618 5618 5619 5619 5619 5618 5618 5620 5621 5623 5624 5626 5629 5632 5635 5637 5640 5643 5645 5648 5650 5652 5654
5685 5686 5682 5675 5672 5666 5658 5650 5642 5637 5634 5639 5636 5632 5629 5626 5624 5622 5621 5621 5621 5620 5620 5620 5619 5619 5618 5617 5618 5619 5620 5621 5623 5626 5628 5630 5633 5635 5637 5639 5641 5643 5644 5647
5673 5679 5677 5669 5675 5670 5664 5660 5651 5642 5643 5644 5639 5636 5633 5630 5628 5626 5625 5624 5623 5622 5621 5621 5620 5619 5618 5618 5618 5618 5618 5619 5620 5622 5624 5626 5628 5630 5631 5633 5635 5637 5638 5641
5668 5675 5668 5678 5688 5681 5672 5668 5662 5658 5654 5649 5645 5642 5639 5636 5633 5630 5629 5628 5626 5625 5625 5624 5623 5622 5621 5619 5618 5617 5617 5617 5618 5619 5620 5622 5624 5625 5626 5628 5630 5631 5633 5635
5664 5666 5670 5685 5690 5684 5675 5670 5671 5664 5660 5655 5651 5645 5640 5643 5641 5637 5635 5633 5631 5630 5629 5628 5627 5625 5623 5621 5619 5618 5616 5616 5616 5616 5617 5618 5619 5620 5621 5622 5624 5625 5626 5628
5666 5673 5672 5689 5698 5695 5683 5671 5678 5671 5664 5657 5651 5637 5639 5648 5646 5644 5641 5638 5637 5635 5634 5632 5630 5628 5626 5623 5621 5619 5617 5616 5616 5615 5615 5615 5614 5615 5616 5617 5617 5619 5620 5621
5669 5671 5677 5697 5700 5695 5671 5675 5686 5678 5671 5662 5655 5650 5651 5653 5651 5649 5646 5644 5642 5639 5637 5635 5634 5632 5628 5625 5623 5621 5619 5618 5616 5615 5614 5613 5612 5612 5612 5613 5613 5614 5614 5615
5668 5673 5685 5706 5699 5690 5690 5695 5691 5684 5678 5670 5665 5663 5661 5658 5656 5653 5649 5648 5645 5642 5640 5639 5637 5635 5631 5628 5626 5624 5621 5619 5617 5615 5614 5612 5610 5609 5609 5609 5609 5609 5610 5610
5690 5698 5711 5711 5710 5710 5704 5698 5694 5688 5683 5677 5671 5668 5665 5662 5659 5656 5653 5650 5648 5645 5643 5642 5640 5638 5635 5632 5630 5627 5623 5620 5617 5615 5612 5610 5608 5607 5606 5605 5605 5604 5604 5604
5699 5709 5715 5715 5714 5713 5707 5704 5699 5694 5688 5682 5676 5672 5669 5664 5660 5658 5655 5653 5650 5648 5646 5644 5643 5641 5639 5637 5634 5630 5626 5622 5618 5615 5612 5610 5608 5606 5604 5602 5601 5601 5600 5600
5707 5715 5719 5721 5717 5715 5710 5707 5702 5697 5692 5686 5680 5676 5671 5666 5663 5660 5658 5655 5653 5650 5648 5647 5646 5645 5643 5640 5637 5632 5628 5625 5620 5617 5613 5610 5607 5605 5603 5601 5600 5599 5598 5597
5716 5726 5721 5724 5725 5719 5712 5708 5703 5698 5692 5688 5684 5679 5675 5669 5666 5663 5661 5658 5656 5654 5652 5651 5649 5648 5646 5643 5640 5636 5631 5627 5623 5619 5615 5612 5609 5606 5605 5603 5602 5601 5600 5598
5737 5736 5730 5731 5727 5722 5716 5712 5706 5701 5696 5690 5686 5682 5678 5672 5669 5666 5664 5661 5659 5657 5655 5654 5652 5651 5649 5647 5643 5639 5635 5631 5626 5622 5619 5615 5612 5608 5606 5604 5604 5602 5600 5599
5737 5733 5730 5728 5725 5722 5718 5713 5708 5702 5697 5693 5687 5683 5679 5675 5672 5669 5666 5664 5662 5660 5659 5657 5655 5654 5652 5650 5647 5643 5639 5636 5631 5627 5623 5619 5615 5612 5608 5606 5604 5602 5601 5600
5734 5735 5734 5731 5725 5720 5716 5710 5704 5698 5695 5691 5687 5683 5679 5675 5673 5671 5669 5667 5664 5663 5661 5660 5658 5656 5655 5653 5650 5646 5643 5639 5635 5631 5627 5623 5619 5616 5612 5609 5606 5604 5602 5601
5732 5731 5728 5725 5721 5717 5712 5708 5703 5698 5695 5691 5687 5684 5681 5678 5674 5672 5670 5668 5666 5664 5663 5661 5660 5659 5657 5655 5652 5649 5646 5644 5640 5635 5631 5627 5623 5619 5615 5612 5609 5607 5605 5603
5727 5723 5721 5720 5718 5715 5712 5710 5706 5701 5696 5692 5689 5686 5681 5677 5674 5672 5671 5669 5667 5665 5664 5662 5661 5660 5659 5657 5654 5651 5648 5646 5644 5640 5635 5632 5627 5623 5620 5616 5613 5610 5608 5607
5737 5735 5730 5727 5722 5716 5712 5709 5705 5701 5697 5694 5690 5685 5680 5676 5674 5672 5671 5668 5667 5666 5665 5664 5663 5661 5660 5658 5656 5653 5650 5648 5645 5642 5639 5635 5632 5628 5624 5621 5618 5615 5612 5610
5731 5730 5726 5724 5721 5717 5712 5708 5704 5701 5698 5693 5688 5684 5681 5678 5675 5673 5670 5667 5665 5664 5665 5665 5664 5662 5660 5658 5657 5654 5652 5649 5647 5645 5642 5639 5636 5632 5629 5625 5622 5619 5616 5614
5726 5724 5722 5719 5716 5713 5709 5707 5703 5699 5695 5691 5687 5682 5679 5677 5674 5671 5668 5665 5665 5666 5666 5664 5663 5661 5660 5659 5658 5655 5652 5651 5648 5646 5644 5641 5638 5636 5633 5630 5627 5624 5621 5619
5717 5717 5715 5712 5710 5708 5706 5703 5699 5696 5693 5689 5685 5681 5679 5677 5673 5669 5665 5664 5667 5667 5665 5664 5662 5660 5659 5658 5657 5654 5653 5651 5649 5648 5645 5643 5641 5639 5636 5634 5632 5629 5627 5624
5706 5706 5705 5704 5702 5700 5699 5696 5695 5692 5688 5685 5682 5680 5676 5673 5669 5666 5665 5665 5668 5667 5664 5662 5661 5660 5658 5657 5655 5654 5652 5651 5650 5648 5646 5645 5643 5641 5639 5638 5636 5634 5632 5630
5691 5692 5693 5693 5692 5691 5690 5688 5687 5685 5683 5681 5679 5676 5674 5672 5668 5664 5663 5666 5665 5664 5662 5661 5660 5659 5658 5656 5653 5652 5651 5650 5649 5648 5647 5646 5645 5644 5643 5641 5640 5638 5636 5635
5674 5676 5678 5679 5679 5678 5677 5677 5676 5677 5676 5676 5674 5673 5670 5666 5663 5663 5665 5665 5664 5662 5659 5659 5658 5657 5656 5653 5651 5650 5650 5649 5649 5648 5648 5647 5646 5645 5644 5643 5642 5641 5640 5638
5656 5658 5660 5662 5662 5662 5664 5665 5665 5665 5665 5664 5664 5664 5663 5662 5661 5662 5659 5658 5658 5657 5655 5655 5655 5654 5652 5649 5648 5648 5647 5647 5647 5647 5647 5647 5646 5646 5645 5645 5644 5643 5642 5641
5635 5637 5640 5642 5644 5645 5647 5649 5650 5650 5651 5651 5652 5653 5653 5653 5653 5652 5652 5651 5651 5651 5650 5649 5648 5648 5646 5645 5645 5644 5644 5644 5645 5645 5645 5645 5645 5645 5645 5644 5644 5644 5643 5642
5613 5616 5620 5623 5625 5628 5630 5632 5634 5635 5637 5638 5640 5642 5642 5642 5642 5642 5642 5642 5642 5642 5642 5642 5642 5641 5640 5640 5640 5640 5640 5640 5641 5641 5641 5642 5642 5643 5643 5643 5643 5643 5643 5642